Weather in Evoron

Russia / Khabarovsk Krai     51°23′38″N   136°20′21″E
temp.,
°C
wind,
m/s
gust,
m/s
humid.,
%
clouds,
%
prec.,
mm/h
press.,
hPa
HPBL,
m
28 january, thu
thu2801:00−23wnw2897100 0.1 1017406
04:00−23wnw249799 0.3 1017131
07:00−23w2298100 0.1 101744
10:00−22wsw2395100 0.3 1017129
13:00−19wsw2378100 0.0 1017621
16:00−19ssw1277100 0.0 1016420
19:00−24sse128867 0.0 101820
22:00−26ssw119434 0.0 101920
29 january, fri
fri2901:00−28s11950 0.0 102019
04:00−29nw01954 0.0 101919
07:00−30nw1193100 0.0 101819
10:00−27nw1186100 0.0 102050
13:00−23nnw3486100 0.0 1017322
16:00−22nnw3788100 0.0 1017406
19:00−22nnw31097100 0.1 1018440
22:00−21nnw51097100 0.6 1019531
30 january, sat
sat3001:00−22nnw61196100 0.5 1020569
04:00−22nnw61197100 1.1 1020582
07:00−22nnw51097100 0.6 1021576
10:00−22nnw4996100 1.3 1022552
13:00−20nnw3694100 0.6 1022600
16:00−20nnw2593100 0.9 1020511
19:00−21nnw1199100 0.2 102220
22:00−21s0099100 0.4 102220
31 january, sun
sun3101:00−21sse1199100 0.3 102120
04:00−21se1299100 0.4 102126
07:00−21s2299100 0.1 102130
10:00−20s2593100 0.2 1021249
13:00−19ssw257599 0.0 1020526
16:00−20sse347976 0.0 1019448
19:00−28sse33953 0.0 102155
22:00−29s369217 0.0 1021127
1 february, mon
mon101:00−29s368753 0.0 1021124
04:00−30s368226 0.0 1020146
07:00−32ssw22830 0.0 101932
10:00−30s23840 0.0 1018122
13:00−24s14710 0.0 1014561
16:00−24e22857 0.0 1011259
19:00−31se1110021 0.0 101219
22:00−32nnw229912 0.0 101219